Regional Weather Roundup
Issued by NWS

Home | Current Version | Previous Version | Text Only | Print | Product List | Glossary On
Versions: 1 2 3 4 5 6 7 8 9 10 11 12 13 14 15 16 17 18 19 20 21 22 23 24 25 26 27 28 29 30 31 32 33 34 35 36 37 38 39 40 41 42 43 44 45 46 47 48 49 50
000
ASUS43 KLSX 210759
RWRMO

WEATHER SUMMARY FOR MISSOURI
NATIONAL WEATHER SERVICE SPRINGFIELD MO
300 AM CDT TUE OCT 21 2014

NOTE: "FAIR" INDICATES FEW OR NO CLOUDS BELOW 12,000 FEET WITH NO
       SIGNIFICANT WEATHER AND/OR OBSTRUCTIONS TO VISIBILITY.
       CURRENT SKY AND/OR WEATHER CONDITIONS ARE NOT AVAILABLE FOR
       CHILLICOTHE AND FARMINGTON.

MOZ001>031-035>038-043-044-053-054-210900-
...NORTHERN AND WESTERN MISSOURI...

CITY           SKY/WX    TMP DP  RH WIND       PRES   REMARKS
KANSAS CTY INT CLEAR     55  40  56 SW3       30.08R
KANSAS C DTWN  CLEAR     49  46  90 CALM      30.08S
LEE`S SUMMIT   CLEAR     46  42  86 SW3       30.08S
ST JOSEPH      CLEAR     39  37  92 CALM      30.10R
KIRKSVILLE     CLEAR     41  41 100 NW3       30.07S

$$
MOZ066>068-077>081-088>096-101>105-210900-
...SOUTHWEST MISSOURI...

CITY           SKY/WX    TMP DP  RH WIND       PRES   REMARKS
SPRINGFIELD    CLEAR     48  45  89 CALM      30.09S
JOPLIN         CLEAR     52  52 100 SE3       30.09S FOG

$$
MOZ032>034-039>042-045>050-055>058-069>072-210900-
...CENTRAL MISSOURI...

CITY           SKY/WX    TMP DP  RH WIND       PRES   REMARKS
COLUMBIA       CLEAR     52  43  71 NW5       30.07S
JEFFERSON CITY CLEAR     44  42  93 CALM      30.07S
ROLLA          CLEAR     46  41  82 SW5       30.06S
SEDALIA        CLEAR     49  42  77 SW3       30.09R
OSAGE BEACH    CLEAR     45  41  87 CALM      30.08S

$$
MOZ051-052-059>065-210900-
...EAST CENTRAL MISSOURI...

CITY           SKY/WX    TMP DP  RH WIND       PRES   REMARKS
ST LOUIS INTL  CLEAR     50  44  80 W5        30.04R
SPIRIT OF STL  CLEAR     44  42  93 CALM      30.04R
ST CHARLES     CLEAR     46  43  89 CALM      30.03R

$$
MOZ072>076-082>087-097>100-106>115-210900-
...SOUTH CENTRAL AND SOUTHEAST MISSOURI...

CITY           SKY/WX    TMP DP  RH WIND       PRES   REMARKS
CAPE GIRARDEAU CLEAR     45  43  93 W3        30.04R
FARMINGTON     CLEAR     45  43  93 CALM      30.07S
WEST PLAINS    CLEAR     48  44  86 CALM      30.09S

$$



USA.gov is the U.S. government's official web portal to all federal, state and local government web resources and services.